Powrót do katalogu

KUIPER-00386

AktywnyŁącznośćLEO
NORAD 68921·PAYLOAD·🇺🇸 United States

Wystrzelony Apr 30, 2026 z Guiana Space Centre

Loading…

Następne Przeloty (najbliższe 24 godziny)

TLE

ŚwieżeSource: CelesTrak SupGP

Epoka: Sep 14, 2026, 23:42 UTC

1 68921C 26098C   26257.98796296 -.00003116  00000+0 -40780-3 0  2570
2 68921  51.9001  16.0577 0000453 105.2936 151.1966 14.79941748    12

Śledź KUIPER-00386 w czasie rzeczywistym z AllMySat

Download on the App Store